STARLINK-32555, 61918

Orbit data source: Space-Track

STARLINK-32555, 61918 is a payload satellite owned by SpaceX/Seattle (US) in LEO that was launched on Mon, 11 Nov 2024 UTC via an FALCON 9 launch vehicle from the Air Force Eastern Test Range (AFETR). Payloads include a variety of satellites, spacecraft, and rockets equipped with specific instruments for various scientific and technological missions. These include communications satellites like Starlink; space stations such as the ISS; scientific satellites like the Hubble; Earth observation satellites from companies like Planet Labs, Umbra, and HawkEye 360; GPS; miniature CubeSats for education and research; and military/defense satellites.

Loading next visibility...
STARLINK-32555 details
Identifier
61918, 2024-207G
Orbit
LEO
Last TLE update5 hours ago
Origin
Flag of USSpaceX/Seattle (US)
ManufacturerSpaceX/Seattle
MissionOperational spacecraft
Bus & MotorSTARLINK V2M, Unknown motor
Mass730 kg wet, ~700 kg dry
Launch date (UTC)
2024-11-11 (1 week ago)
Launch vehicle
FALCON 9
Launch site
Air Force Eastern Test Range (AFETR)
Object type
Payload
Rocket body
Debris
Shape & HBRUnknown
Radar Cross SectionRCS unknown

Expand to show TLE details & history

TLE from 5 hours ago
0 STARLINK-32555
1 61918U 24207G   24326.16667824 -.00714229  00000-0 -24714-2 0  9994
2 61918  43.0027  92.9442 0002075 268.9312 238.9369 15.90090497  2521
Epoch: 2024-11-21T04:00Z
Definitive object data (Epoch: 2024-11-21T04:00:00.999Z)
Latitude21.35341°
Longitude127.65246°
Altitude302.191 km
Speed7.73 km/s
True Right ascension16h 33m 14s
True Declination21° 13' 45"
Sunlit
Object was in daylight at TLE epoch
Visualization TLE readout
Latitude-40.87185°
Longitude-96.35094°
Altitude313.896 km
Speed7.721 km/s
Apparent Right ascension21h 59m 01s
Apparent Declination-56° 30' 29"
Sunlit
Object is in full shadow
Visualization observer readout
Local Sidereal Time06:09:19
Azimuth226.004° WSW
Elevation-49.731°
Doppler factor1
Orbital elements
Apogee altitude305.413 km
Perigee altitude302.64 km
Semi-major axis6,682.164 km
Eccentricity0.0002075
Inclination43.0027°
RAAN92.9442°
Arg. of periapsis268.9312°
True anomaly238.91653°
Mean anomaly238.9369°
Eccentric anomaly238.92672°
Mean motion3.97345 °/min
BSTAR-0.0024714
Orbital period90.6 mins
Loading maneuver chart data...
Loading historical data...
Loading historical data...
Loading historical data...
Loading historical data...
Loading historical data...
Loading historical data...
Loading historical data...

STARLINK-32555 Visibility forecast

Observer location: undefined°, undefined

Span
Click to sort rows by Start time (UTC) header in descending order
Start Az.
Max El. time (UTC)
Max El. Az.
Max El.
End time (UTC)
End Az.
4 mins2024-11-21 12:39:21.352Z233.453° WSW2024-11-21 12:41:21.352Z196.556° SSW34.241°2024-11-21 12:43:21.352Z86.004° E
|